Starlink 34654

operational
NORAD ID: 64858 Int'l Des: 2025-152 Owner: SPXS Country: US Constellation: starlink
LEOCIRCULARRETROGRADESSO

About Starlink 34654

Description loading...

Live Position

Loading 3D Globe...

Upcoming Passes

Altitude History

Altitude vs Time

uPlot chart will show altitude changes over time

Two-Line Element Set

1 64858U 25152S 26102.86050656 -.00001430 00000-0 -94937-4 0 9999
2 64858 97.6045 319.2469 0002052 85.2181 274.9280 15.05639980 40565
Epoch: Apr 12, 2026 • Age: 9 hours

Current Status

Altitude 551.9 km
Velocity 7.59 km/s
Sub-Earth Point 7.07°N, 141.75°W
Launch Date Jul 19, 2025
Age 0.7 years
Type internet

Technical Details

Classification Payload
Mass 575.00 kg
Dry Mass 530.00 kg
Total Mass 575.00 kg
Length 0.30 m
Diameter 4.10 m
Span 29.00 m
Shape Box + pan
Manufacturer SPXS
Bus Type Starlink V2MO
Phase Status In Orbit
Owner/State SPXS/US

Large Constellations

Loading constellations...